TimeEST,TemperatureF,Dew PointF,Humidity,Sea Level PressureIn,VisibilityMPH,Wind Direction,Wind SpeedMPH,Gust SpeedMPH,PrecipitationIn,Events,Conditions,WindDirDegrees,DateUTC
12:15 AM,75.2,60.8,61,30.23,10.0,East,16.1,21.9,N/A,,Mostly Cloudy,100,2012-11-12 05:15:00
12:35 AM,75.2,62.6,65,30.23,10.0,ESE,16.1,21.9,N/A,,Overcast,110,2012-11-12 05:35:00
12:55 AM,73.4,62.6,69,30.23,10.0,East,16.1,23.0,N/A,,Scattered Clouds,100,2012-11-12 05:55:00
1:55 AM,73.4,60.8,65,30.21,10.0,ESE,16.1,21.9,N/A,,Scattered Clouds,110,2012-11-12 06:55:00
2:15 AM,75.2,62.6,65,30.21,10.0,ESE,15.0,21.9,N/A,,Scattered Clouds,110,2012-11-12 07:15:00
2:35 AM,75.2,62.6,65,30.20,10.0,East,15.0,20.7,N/A,,Mostly Cloudy,100,2012-11-12 07:35:00
2:55 AM,75.2,62.6,65,30.20,10.0,East,15.0,20.7,N/A,,Mostly Cloudy,100,2012-11-12 07:55:00
3:15 AM,75.2,62.6,65,30.20,10.0,East,15.0,25.3,N/A,,Scattered Clouds,100,2012-11-12 08:15:00
3:35 AM,75.2,62.6,65,30.19,10.0,East,13.8,20.7,N/A,,Scattered Clouds,100,2012-11-12 08:35:00
3:55 AM,75.2,64.4,69,30.19,10.0,East,15.0,-,N/A,,Mostly Cloudy,100,2012-11-12 08:55:00
4:15 AM,75.2,64.4,69,30.19,10.0,East,15.0,21.9,N/A,,Mostly Cloudy,100,2012-11-12 09:15:00
4:35 AM,75.2,62.6,65,30.19,10.0,ESE,15.0,20.7,N/A,,Mostly Cloudy,110,2012-11-12 09:35:00
4:55 AM,75.2,62.6,65,30.19,10.0,ESE,12.7,18.4,N/A,,Mostly Cloudy,110,2012-11-12 09:55:00
5:15 AM,75.2,62.6,65,30.20,10.0,East,12.7,20.7,N/A,,Mostly Cloudy,100,2012-11-12 10:15:00
7:47 AM,77.0,64.4,65,30.22,7.0,East,15.0,21.9,N/A,,Scattered Clouds,90,2012-11-12 12:47:00
8:50 AM,77.0,64.4,65,30.24,7.0,East,13.8,20.7,N/A,,Mostly Cloudy,90,2012-11-12 13:50:00
9:47 AM,80.6,64.4,58,30.23,7.0,ESE,15.0,20.7,N/A,,Mostly Cloudy,110,2012-11-12 14:47:00
10:47 AM,80.6,64.4,58,30.24,7.0,ESE,15.0,20.7,N/A,,Scattered Clouds,110,2012-11-12 15:47:00
11:47 AM,80.6,62.6,54,30.22,7.0,ESE,15.0,20.7,N/A,,Mostly Cloudy,110,2012-11-12 16:47:00
12:47 PM,80.6,64.4,58,30.20,7.0,ESE,15.0,20.7,N/A,,Mostly Cloudy,110,2012-11-12 17:47:00
1:47 PM,78.8,62.6,57,30.18,7.0,East,13.8,18.4,N/A,,Mostly Cloudy,100,2012-11-12 18:47:00
2:47 PM,80.6,62.6,54,30.17,7.0,East,13.8,18.4,N/A,,Mostly Cloudy,90,2012-11-12 19:47:00
3:47 PM,80.6,62.6,54,30.16,7.0,East,13.8,17.3,N/A,,Mostly Cloudy,90,2012-11-12 20:47:00
4:47 PM,77.0,62.6,61,30.17,7.0,East,11.5,16.1,N/A,,Mostly Cloudy,90,2012-11-12 21:47:00
5:47 PM,75.2,64.4,69,30.16,7.0,East,11.5,-,N/A,,Scattered Clouds,100,2012-11-12 22:47:00
7:15 PM,75.2,64.4,69,30.18,10.0,East,10.4,-,N/A,,Scattered Clouds,100,2012-11-13 00:15:00
7:35 PM,75.2,64.4,69,30.18,10.0,East,9.2,16.1,N/A,,Scattered Clouds,90,2012-11-13 00:35:00
7:55 PM,75.2,64.4,69,30.18,10.0,East,12.7,-,N/A,,Scattered Clouds,100,2012-11-13 00:55:00
8:15 PM,75.2,64.4,69,30.18,10.0,East,9.2,16.1,N/A,,Scattered Clouds,90,2012-11-13 01:15:00
8:35 PM,75.2,62.6,65,30.18,10.0,East,9.2,-,N/A,,Clear,90,2012-11-13 01:35:00
8:55 PM,75.2,62.6,65,30.19,10.0,East,8.1,-,N/A,,Clear,90,2012-11-13 01:55:00
9:15 PM,75.2,64.4,69,30.19,10.0,East,9.2,-,N/A,,Clear,90,2012-11-13 02:15:00
9:35 PM,75.2,64.4,69,30.18,10.0,East,10.4,-,N/A,,Scattered Clouds,90,2012-11-13 02:35:00
9:55 PM,75.2,64.4,69,30.18,10.0,East,9.2,-,N/A,,Scattered Clouds,100,2012-11-13 02:55:00
10:15 PM,75.2,64.4,69,30.18,10.0,East,10.4,-,N/A,,Scattered Clouds,80,2012-11-13 03:15:00
10:35 PM,77.0,64.4,65,30.18,10.0,East,9.2,-,N/A,,Scattered Clouds,90,2012-11-13 03:35:00
10:55 PM,77.0,64.4,65,30.18,10.0,East,8.1,-,N/A,,Mostly Cloudy,100,2012-11-13 03:55:00
11:15 PM,75.2,64.4,69,30.17,10.0,East,10.4,-,N/A,,Mostly Cloudy,90,2012-11-13 04:15:00
11:35 PM,75.2,64.4,69,30.17,10.0,East,10.4,-,N/A,,Scattered Clouds,100,2012-11-13 04:35:00
11:55 PM,75.2,64.4,69,30.17,10.0,East,9.2,-,N/A,,Scattered Clouds,90,2012-11-13 04:55:00